| time (UTC) | temp C | wind direction | speed KPH | gust KPH | rain 1hr cm | rain 24hr cm | rain mn cm | humidity % | barometer mb |
| 20260506180236 | 13 | 323 | 8.0 | 11.3 | 0.00 | 0.00 | 0.00 | 10 | 1007.3 |
| 20260506180232 | 13 | 323 | 8.0 | 11.3 | 0.00 | 0.00 | 0.00 | 10 | 1007.3 |
| 20260506175759 | 13 | 323 | 8.0 | 9.7 | 0.00 | 0.00 | 0.00 | 10 | 1007.3 |
| 20260506175322 | 13 | 317 | 6.4 | 8.0 | 0.00 | 0.00 | 0.00 | 10 | 1007.0 |
| 20260506175317 | 13 | 317 | 6.4 | 8.0 | 0.00 | 0.00 | 0.00 | 10 | 1007.0 |
| 20260506174406 | 13 | 330 | 1.6 | 3.2 | 0.00 | 0.00 | 0.00 | 10 | 1006.7 |
| 20260506174401 | 13 | 330 | 1.6 | 3.2 | 0.00 | 0.00 | 0.00 | 10 | 1006.7 |
| 20260506173924 | 13 | 346 | 1.6 | 4.8 | 0.00 | 0.00 | 0.00 | 10 | 1006.5 |
| 20260506173014 | 13 | 334 | 1.6 | 3.2 | 0.00 | 0.00 | 0.00 | 10 | 1006.6 |
| 20260506173009 | 13 | 334 | 1.6 | 3.2 | 0.00 | 0.00 | 0.00 | 10 | 1006.6 |
| 20260506172536 | 13 | 1 | 1.6 | 3.2 | 0.00 | 0.00 | 0.00 | 10 | 1006.5 |
| 20260506172532 | 13 | 1 | 1.6 | 3.2 | 0.00 | 0.00 | 0.00 | 10 | 1006.5 |
| 20260506172054 | 14 | 235 | 0.0 | 1.6 | 0.00 | 0.00 | 0.00 | 10 | 1006.5 |
| 20260506171617 | 14 | 165 | 0.0 | 1.6 | 0.00 | 0.00 | 0.00 | 10 | 1006.4 |
| 20260506170706 | 14 | 72 | 1.6 | 3.2 | 0.00 | 0.00 | 0.00 | 10 | 1006.4 |
| 20260506170702 | 14 | 72 | 1.6 | 3.2 | 0.00 | 0.00 | 0.00 | 10 | 1006.4 |
| 20260506170224 | 14 | 73 | 3.2 | 6.4 | 0.00 | 0.00 | 0.00 | 10 | 1006.3 |
| 20260506165746 | 14 | 84 | 1.6 | 4.8 | 0.00 | 0.00 | 0.00 | 10 | 1006.3 |
| 20260506165309 | 15 | 7 | 3.2 | 8.0 | 0.00 | 0.00 | 0.00 | 10 | 1006.4 |
| 20260506164836 | 15 | 19 | 4.8 | 8.0 | 0.00 | 0.00 | 0.00 | 10 | 1006.3 |
| 20260506164831 | 15 | 19 | 4.8 | 8.0 | 0.00 | 0.00 | 0.00 | 10 | 1006.3 |
| 20260506164358 | 15 | 10 | 3.2 | 6.4 | 0.00 | 0.00 | 0.00 | 10 | 1006.4 |
| 20260506164353 | 15 | 10 | 3.2 | 6.4 | 0.00 | 0.00 | 0.00 | 10 | 1006.4 |
| 20260506163921 | 15 | 350 | 3.2 | 4.8 | 0.00 | 0.00 | 0.00 | 10 | 1006.5 |
| 20260506163916 | 15 | 350 | 3.2 | 4.8 | 0.00 | 0.00 | 0.00 | 10 | 1006.5 |
| 20260506163438 | 15 | 22 | 1.6 | 3.2 | 0.00 | 0.00 | 0.00 | 10 | 1006.5 |
| 20260506162050 | 15 | 359 | 3.2 | 8.0 | 0.00 | 0.00 | 0.00 | 10 | 1006.7 |
| 20260506162045 | 15 | 359 | 3.2 | 8.0 | 0.00 | 0.00 | 0.00 | 10 | 1006.7 |
| 20260506161608 | 15 | 344 | 3.2 | 8.0 | 0.00 | 0.00 | 0.00 | 10 | 1006.8 |
| 20260506161135 | 15 | 327 | 3.2 | 8.0 | 0.00 | 0.00 | 0.00 | 10 | 1006.9 |
| 20260506161130 | 15 | 327 | 3.2 | 8.0 | 0.00 | 0.00 | 0.00 | 10 | 1006.9 |
| 20260506160215 | 16 | 344 | 4.8 | 6.4 | 0.00 | 0.00 | 0.00 | 10 | 1007.2 |
| 20260506155306 | 16 | 318 | 6.4 | 8.0 | 0.00 | 0.00 | 0.00 | 10 | 1006.8 |
| 20260506155300 | 16 | 318 | 6.4 | 8.0 | 0.00 | 0.00 | 0.00 | 10 | 1006.8 |
| 20260506154822 | 17 | 321 | 6.4 | 11.3 | 0.00 | 0.00 | 0.00 | 10 | 1006.6 |
| 20260506154344 | 17 | 308 | 6.4 | 8.0 | 0.00 | 0.00 | 0.00 | 10 | 1006.4 |
| 20260506153911 | 17 | 319 | 6.4 | 11.3 | 0.00 | 0.00 | 0.00 | 10 | 1006.6 |
| 20260506153906 | 17 | 319 | 6.4 | 11.3 | 0.00 | 0.00 | 0.00 | 10 | 1006.6 |
| 20260506153428 | 18 | 334 | 4.8 | 9.7 | 0.00 | 0.00 | 0.00 | 10 | 1006.5 |
| 20260506152955 | 18 | 329 | 3.2 | 8.0 | 0.00 | 0.00 | 0.00 | 10 | 1006.6 |
| 20260506152950 | 18 | 329 | 3.2 | 8.0 | 0.00 | 0.00 | 0.00 | 10 | 1006.6 |
| 20260506152517 | 18 | 339 | 1.6 | 3.2 | 0.00 | 0.00 | 0.00 | 10 | 1006.6 |
| 20260506152513 | 18 | 339 | 1.6 | 3.2 | 0.00 | 0.00 | 0.00 | 10 | 1006.6 |
| 20260506151601 | 18 | 212 | 1.6 | 3.2 | 0.00 | 0.00 | 0.00 | 10 | 1006.7 |
| 20260506151124 | 18 | 180 | 3.2 | 4.8 | 0.00 | 0.00 | 0.00 | 10 | 1006.7 |
| 20260506151119 | 18 | 180 | 3.2 | 4.8 | 0.00 | 0.00 | 0.00 | 10 | 1006.7 |
| 20260506150203 | 18 | 320 | 3.2 | 4.8 | 0.00 | 0.00 | 0.00 | 10 | 1006.6 |
| 20260506145730 | 19 | 344 | 3.2 | 4.8 | 0.00 | 0.00 | 0.00 | 10 | 1006.6 |
| 20260506145725 | 19 | 344 | 3.2 | 4.8 | 0.00 | 0.00 | 0.00 | 10 | 1006.6 |
| 20260506144814 | 19 | 315 | 1.6 | 4.8 | 0.00 | 0.00 | 0.00 | 10 | 0.1 |
| 20260506144809 | 19 | 315 | 1.6 | 4.8 | 0.00 | 0.00 | 0.00 | 10 | 1006.8 |
| 20260506144331 | 19 | 309 | 3.2 | 6.4 | 0.00 | 0.00 | 0.00 | 10 | 1006.9 |
| 20260506142942 | 21 | 293 | 1.6 | 8.0 | 0.00 | 0.00 | 0.00 | 92 | 1007.1 |
| 20260506142459 | 21 | 167 | 1.6 | 3.2 | 0.00 | 0.00 | 0.00 | 83 | 1007.1 |
| 20260506142021 | 21 | 183 | 3.2 | 4.8 | 0.00 | 0.00 | 0.00 | 84 | 1007.1 |
| 20260506141543 | 21 | 178 | 4.8 | 6.4 | 0.00 | 0.00 | 0.00 | 86 | 1007.1 |
| 20260506141104 | 21 | 162 | 4.8 | 8.0 | 0.00 | 0.00 | 0.00 | 91 | 1007.2 |
| 20260506140630 | 21 | 182 | 4.8 | 6.4 | 0.00 | 0.00 | 0.00 | 87 | 1007.2 |
| 20260506140626 | 21 | 182 | 4.8 | 6.4 | 0.00 | 0.00 | 0.00 | 87 | 1007.2 |
| 20260506140148 | 21 | 176 | 6.4 | 11.3 | 0.00 | 0.00 | 0.00 | 83 | 1007.1 |
| 20260506135714 | 21 | 167 | 6.4 | 14.5 | 0.00 | 0.00 | 0.00 | 77 | 1007.1 |
| 20260506135709 | 21 | 167 | 6.4 | 14.5 | 0.00 | 0.00 | 0.00 | 77 | 1007.1 |
| 20260506135231 | 21 | 159 | 8.0 | 14.5 | 0.00 | 0.00 | 0.00 | 70 | 1007.2 |
| 20260506134753 | 21 | 153 | 9.7 | 16.1 | 0.00 | 0.00 | 0.00 | 75 | 1007.3 |
| 20260506134315 | 21 | 156 | 11.3 | 16.1 | 0.00 | 0.00 | 0.00 | 73 | 1007.3 |
| 20260506132003 | 21 | 109 | 3.2 | 8.0 | 0.00 | 0.00 | 0.00 | 76 | 1007.5 |
| 20260506125656 | 22 | 131 | 4.8 | 6.4 | 0.00 | 0.00 | 0.00 | 76 | 1008.0 |
| 20260506125651 | 22 | 131 | 4.8 | 6.4 | 0.00 | 0.00 | 0.00 | 76 | 1008.0 |
| 20260506125218 | -17 | 117 | 3.2 | 4.8 | 0.00 | 0.00 | 0.00 | 1.0 | |
| 20260506125213 | 22 | 117 | 3.2 | 4.8 | 0.00 | 0.00 | 0.00 | 87 | 1008.1 |
| 20260506124256 | 22 | 166 | 3.2 | 4.8 | 0.00 | 0.00 | 0.00 | 61 | 1008.2 |
| 20260506123339 | 23 | 189 | 4.8 | 6.4 | 0.00 | 0.00 | 0.00 | 59 | 1008.3 |
| 20260506122421 | 23 | 209 | 3.2 | 4.8 | 0.00 | 0.00 | 0.00 | 54 | 1008.3 |
| 20260506121948 | 22 | 217 | 4.8 | 6.4 | 0.00 | 0.00 | 0.00 | 67 | 1008.4 |
| 20260506121942 | 22 | 217 | 4.8 | 6.4 | 0.00 | 0.00 | 0.00 | 67 | 1008.4 |
| 20260506121514 | 22 | 187 | 6.4 | 9.7 | 0.00 | 0.00 | 0.00 | 68 | 1008.4 |
| 20260506121509 | 22 | 187 | 6.4 | 9.7 | 0.00 | 0.00 | 0.00 | 68 | 1008.4 |
| 20260506121504 | 22 | 187 | 6.4 | 9.7 | 0.00 | 0.00 | 0.00 | 68 | 1008.4 |
| 20260506121030 | 22 | 169 | 4.8 | 8.0 | 0.00 | 0.00 | 0.00 | 71 | 1008.4 |
| 20260506121025 | 22 | 169 | 4.8 | 8.0 | 0.00 | 0.00 | 0.00 | 71 | 1008.4 |
| 20260506115629 | 22 | 145 | 8.0 | 11.3 | 0.00 | 0.00 | 0.00 | 58 | 1008.5 |
| 20260506114713 | 23 | 216 | 4.8 | 6.4 | 0.00 | 0.00 | 0.00 | 54 | 1008.5 |
| 20260506113759 | 24 | 296 | 3.2 | 4.8 | 0.00 | 0.00 | 0.00 | 57 | 1008.6 |
| 20260506113754 | 24 | 296 | 3.2 | 4.8 | 0.00 | 0.00 | 0.00 | 57 | 1008.6 |
| 20260506113315 | 25 | 228 | 3.2 | 8.0 | 0.00 | 0.00 | 0.00 | 61 | 1008.6 |
| 20260506111439 | 23 | 287 | 3.2 | 4.8 | 0.00 | 0.00 | 0.00 | 62 | 1008.8 |
| 20260506111005 | 23 | 341 | 3.2 | 4.8 | 0.00 | 0.00 | 0.00 | 71 | 1008.9 |
| 20260506111000 | 23 | 341 | 3.2 | 4.8 | 0.00 | 0.00 | 0.00 | 71 | 1008.9 |
| 20260506110521 | 23 | 267 | 1.6 | 3.2 | 0.00 | 0.00 | 0.00 | 67 | 1008.9 |
| 20260506110042 | 24 | 338 | 3.2 | 4.8 | 0.00 | 0.00 | 0.00 | 59 | 1008.9 |
| 20260506105608 | 25 | 339 | 3.2 | 4.8 | 0.00 | 0.00 | 0.00 | 58 | 1009.0 |
| 20260506105603 | 25 | 339 | 3.2 | 4.8 | 0.00 | 0.00 | 0.00 | 58 | 1009.0 |
| 20260506105124 | 24 | 211 | 3.2 | 6.4 | 0.00 | 0.00 | 0.00 | 63 | 1009.0 |
| 20260506104211 | 23 | 329 | 1.6 | 3.2 | 0.00 | 0.00 | 0.00 | 72 | 10.0 |
| 20260506104206 | 23 | 329 | 1.6 | 3.2 | 0.00 | 0.00 | 0.00 | 72 | 1009.1 |
| 20260506103253 | 23 | 316 | 3.2 | 4.8 | 0.00 | 0.00 | 0.00 | 73 | 1009.1 |
| 20260506103248 | 23 | 316 | 3.2 | 4.8 | 0.00 | 0.00 | 0.00 | 73 | 1009.1 |
| 20260506102814 | 23 | 291 | 1.6 | 4.8 | 0.00 | 0.00 | 0.00 | 71 | 1009.4 |
| 20260506102809 | 23 | 291 | 1.6 | 4.8 | 0.00 | 0.00 | 0.00 | 71 | 1009.4 |
| 20260506102330 | 23 | 255 | 3.2 | 6.4 | 0.00 | 0.00 | 0.00 | 83 | 1009.5 |
| 20260506101851 | 23 | 241 | 3.2 | 6.4 | 0.00 | 0.00 | 0.00 | 66 | 1009.4 |
| 20260506100454 | 23 | 178 | 3.2 | 8.0 | 0.00 | 0.00 | 0.00 | 80 | 1009.6 |
| 20260506100020 | 23 | 197 | 3.2 | 8.0 | 0.00 | 0.00 | 0.00 | 80 | 1009.6 |
| 20260506100015 | 23 | 197 | 3.2 | 8.0 | 0.00 | 0.00 | 0.00 | 80 | 1009.6 |
| 20260506095541 | 23 | 211 | 3.2 | 4.8 | 0.00 | 0.00 | 0.00 | 85 | 1009.5 |
| 20260506095536 | 23 | 211 | 3.2 | 4.8 | 0.00 | 0.00 | 0.00 | 85 | 1009.5 |
| 20260506095103 | 22 | 205 | 3.2 | 6.4 | 0.00 | 0.00 | 0.00 | 84 | 1009.5 |
| 20260506095057 | 22 | 205 | 3.2 | 6.4 | 0.00 | 0.00 | 0.00 | 84 | 1009.5 |
| 20260506094144 | 22 | 228 | 4.8 | 6.4 | 0.00 | 0.00 | 0.00 | 84 | 1009.6 |
| 20260506093222 | 23 | 188 | 1.6 | 3.2 | 0.00 | 0.00 | 0.00 | 84 | 1009.5 |
| 20260506092309 | 22 | 279 | 4.8 | 9.7 | 0.00 | 0.00 | 0.00 | 10 | 1009.5 |
| 20260506092306 | 22 | 279 | 4.8 | 9.7 | 0.00 | 0.00 | 0.00 | 10 | 1009.5 |
| 20260506091826 | 21 | 237 | 3.2 | 8.0 | 0.00 | 0.00 | 0.00 | 94 | 1009.5 |
| 20260506091352 | 21 | 236 | 1.6 | 3.2 | 0.00 | 0.00 | 0.00 | 10 | 1009.6 |
| 20260506091347 | 21 | 236 | 1.6 | 3.2 | 0.00 | 0.00 | 0.00 | 10 | 1009.6 |
| 20260506090908 | 21 | 225 | 6.4 | 8.0 | 0.00 | 0.00 | 0.00 | 97 | 1009.6 |
| 20260506090430 | 20 | 228 | 4.8 | 8.0 | 0.00 | 0.00 | 0.00 | 10 | 1009.6 |
| 20260506085957 | 20 | 215 | 4.8 | 8.0 | 0.00 | 0.00 | 0.00 | 10 | 1009.6 |
| 20260506085951 | 20 | 215 | 4.8 | 8.0 | 0.00 | 0.00 | 0.00 | 10 | 1009.6 |
| 20260506085040 | 20 | 276 | 3.2 | 4.8 | 0.00 | 0.00 | 0.00 | 10 | 1009.5 |
| 20260506085034 | 20 | 276 | 3.2 | 4.8 | 0.00 | 0.00 | 0.00 | 10 | 1009.5 |
| 20260506084556 | 20 | 284 | 1.6 | 3.2 | 0.00 | 0.00 | 0.00 | 10 | 1009.5 |
| 20260506084123 | 20 | 284 | 3.2 | 3.2 | 0.00 | 0.00 | 0.00 | 10 | 1009.5 |
| 20260506084118 | 20 | 284 | 3.2 | 3.2 | 0.00 | 0.00 | 0.00 | 10 | 1009.5 |
| 20260506083644 | 20 | 276 | 3.2 | 4.8 | 0.00 | 0.00 | 0.00 | 10 | 1009.5 |
| 20260506083639 | 20 | 276 | 3.2 | 4.8 | 0.00 | 0.00 | 0.00 | 10 | 1009.5 |
| 20260506083205 | 20 | 277 | 3.2 | 6.4 | 0.00 | 0.00 | 0.00 | 10 | 100.9 |
| 20260506083201 | 20 | 277 | 3.2 | 6.4 | 0.00 | 0.00 | 0.00 | 10 | 1009.5 |
| 20260506082728 | 20 | 224 | 4.8 | 8.0 | 0.00 | 0.00 | 0.00 | 10 | 1009.4 |
| 20260506082722 | 20 | 224 | 4.8 | 8.0 | 0.00 | 0.00 | 0.00 | 10 | 1009.4 |
| 20260506080410 | 20 | 251 | 3.2 | 4.8 | 0.00 | 0.00 | 0.00 | 10 | 1009.6 |
| 20260506072709 | 18 | 278 | 1.6 | 4.8 | 0.00 | 0.00 | 0.00 | 10 | 1009.7 |
| 20260506072704 | 18 | 278 | 1.6 | 4.8 | 0.00 | 0.00 | 0.00 | 10 | 1009.7 |
| 20260506072231 | 17 | 285 | 3.2 | 4.8 | 0.00 | 0.00 | 0.00 | 10 | 1009.7 |
| 20260506072226 | 17 | 285 | 3.2 | 4.8 | 0.00 | 0.00 | 0.00 | 10 | 1009.7 |
| 20260506071315 | 16 | 302 | 3.2 | 4.8 | 0.00 | 0.00 | 0.00 | 10 | 1009.7 |
| 20260506071310 | 16 | 302 | 3.2 | 4.8 | 0.00 | 0.00 | 0.00 | 10 | 1009.7 |
| 20260506070837 | 15 | 332 | 3.2 | 8.0 | 0.00 | 0.00 | 0.00 | 10 | 1009.8 |
| 20260506070832 | 15 | 332 | 3.2 | 8.0 | 0.00 | 0.00 | 0.00 | 10 | 1009.8 |
| 20260506070354 | 16 | 328 | 3.2 | 4.8 | 0.00 | 0.00 | 0.00 | 10 | 1009.7 |
| 20260506062214 | 16 | 234 | 3.2 | 6.4 | 0.00 | 0.00 | 0.00 | 10 | 1009.5 |
| 20260506061259 | 15 | 223 | 4.8 | 8.0 | 0.00 | 0.00 | 0.00 | 10 | 1009.7 |
| 20260506051251 | 12 | 279 | 0.0 | 1.6 | 0.00 | 0.00 | 0.00 | 10 | 1009.6 |
| 20260506050818 | 12 | 280 | 0.0 | 0.0 | 0.00 | 0.00 | 0.00 | 10 | 1009.5 |
| 20260506050813 | 12 | 280 | 0.0 | 0.0 | 0.00 | 0.00 | 0.00 | 10 | 1009.5 |
| 20260506050336 | 12 | 224 | 1.6 | 3.2 | 0.00 | 0.00 | 0.00 | 10 | 1009.4 |
| 20260506044948 | 11 | 145 | 1.6 | 3.2 | 0.00 | 0.00 | 0.00 | 10 | 1009.5 |
| 20260506044944 | 11 | 145 | 1.6 | 3.2 | 0.00 | 0.00 | 0.00 | 10 | 1009.5 |
| 20260506044029 | 11 | 148 | 0.0 | 1.6 | 0.00 | 0.00 | 0.00 | 10 | 1009.4 |
| 20260506043551 | 11 | 135 | 0.0 | 0.0 | 0.00 | 0.00 | 0.00 | 10 | 1009.3 |
| 20260506042637 | 11 | 135 | 0.0 | 3.2 | 0.00 | 0.00 | 0.00 | 10 | 1009.1 |
| 20260506042200 | 11 | 135 | 1.6 | 1.6 | 0.00 | 0.00 | 0.00 | 10 | 1009.0 |
| 20260506041245 | 11 | 135 | 0.0 | 0.0 | 0.00 | 0.00 | 0.00 | 10 | 1009.0 |
| 20260506040330 | 11 | 180 | 0.0 | 0.0 | 0.00 | 0.00 | 0.00 | 10 | 1008.8 |
| 20260506035857 | 11 | 180 | 0.0 | 0.0 | 0.00 | 0.00 | 0.00 | 10 | 1008.7 |
| 20260506035852 | 11 | 180 | 0.0 | 0.0 | 0.00 | 0.00 | 0.00 | 10 | 1008.7 |
| 20260506035420 | 11 | 180 | 0.0 | 0.0 | 0.00 | 0.00 | 0.00 | 10 | 1008.7 |
| 20260506035415 | 11 | 180 | 0.0 | 0.0 | 0.00 | 0.00 | 0.00 | 10 | 1008.7 |
| 20260506034023 | 11 | 225 | 0.0 | 0.0 | 0.00 | 0.00 | 0.00 | 10 | 1008.7 |
| 20260506033546 | 11 | 225 | 0.0 | 0.0 | 0.00 | 0.00 | 0.00 | 10 | 1008.6 |
| 20260506033108 | 11 | 225 | 0.0 | 0.0 | 0.00 | 0.00 | 0.00 | 10 | 1008.7 |
| 20260506032631 | 11 | 213 | 1.6 | 3.2 | 0.00 | 0.00 | 0.00 | 10 | 1008.7 |
| 20260506032154 | 11 | 225 | 3.2 | 3.2 | 0.00 | 0.00 | 0.00 | 10 | 1008.7 |
| 20260506031716 | 11 | 225 | 3.2 | 3.2 | 0.00 | 0.00 | 0.00 | 10 | 1008.7 |
| 20260506031244 | 11 | 225 | 3.2 | 3.2 | 0.00 | 0.00 | 0.00 | 10 | 1008.8 |
| 20260506031239 | 11 | 225 | 3.2 | 3.2 | 0.00 | 0.00 | 0.00 | 10 | 1008.8 |
| 20260506025852 | 11 | 225 | 3.2 | 4.8 | 0.00 | 0.00 | 0.00 | 10 | 1008.6 |
| 20260506025414 | 11 | 225 | 3.2 | 4.8 | 0.00 | 0.00 | 0.00 | 10 | 1008.6 |
| 20260506025410 | 11 | 225 | 3.2 | 4.8 | 0.00 | 0.00 | 0.00 | 10 | 1008.6 |
| 20260506024937 | 11 | 228 | 3.2 | 4.8 | 0.00 | 0.00 | 0.00 | 10 | 1008.6 |
| 20260506024933 | 11 | 228 | 3.2 | 4.8 | 0.00 | 0.00 | 0.00 | 10 | 1008.6 |
| 20260506024455 | 11 | 225 | 1.6 | 4.8 | 0.00 | 0.00 | 0.00 | 10 | 1008.6 |
| 20260506024022 | 11 | 225 | 1.6 | 3.2 | 0.00 | 0.00 | 0.00 | 10 | 1008.4 |
| 20260506024017 | 11 | 225 | 1.6 | 3.2 | 0.00 | 0.00 | 0.00 | 10 | 1008.4 |
| 20260506023540 | 11 | 225 | 3.2 | 3.2 | 0.00 | 0.00 | 0.00 | 10 | 1008.3 |
| 20260506022630 | 11 | 225 | 3.2 | 3.2 | 0.00 | 0.00 | 0.00 | 10 | 1008.3 |
| 20260506022625 | 11 | 225 | 3.2 | 3.2 | 0.00 | 0.00 | 0.00 | 10 | 1008.3 |
| 20260506022148 | 11 | 225 | 3.2 | 3.2 | 0.00 | 0.00 | 0.00 | 10 | 1008.2 |
| 20260506021715 | 11 | 221 | 1.6 | 3.2 | 0.00 | 0.00 | 0.00 | 10 | 1008.1 |
| 20260506021711 | 11 | 221 | 1.6 | 3.2 | 0.00 | 0.00 | 0.00 | 10 | 1008.1 |
| 20260506021233 | 12 | 180 | 1.6 | 3.2 | 0.00 | 0.00 | 0.00 | 10 | 1008.0 |
| 20260506020756 | 12 | 203 | 1.6 | 3.2 | 0.00 | 0.00 | 0.00 | 10 | 1008.2 |
| 20260506020323 | 12 | 190 | 3.2 | 3.2 | 0.00 | 0.00 | 0.00 | 10 | 1008.3 |
| 20260506020319 | 12 | 190 | 3.2 | 3.2 | 0.00 | 0.00 | 0.00 | 10 | 1008.3 |
| 20260506015841 | 12 | 212 | 3.2 | 4.8 | 0.00 | 0.00 | 0.00 | 10 | 1008.2 |
| 20260506015404 | 12 | 222 | 3.2 | 3.2 | 0.00 | 0.00 | 0.00 | 10 | 1008.2 |
| 20260506014454 | 12 | 225 | 3.2 | 3.2 | 0.00 | 0.00 | 0.00 | 10 | 1008.3 |
| 20260506014449 | 12 | 225 | 3.2 | 3.2 | 0.00 | 0.00 | 0.00 | 10 | 1008.3 |
| 20260506014017 | 12 | 225 | 3.2 | 4.8 | 0.00 | 0.00 | 0.00 | 10 | 1008.4 |
| 20260506014011 | 12 | 225 | 3.2 | 4.8 | 0.00 | 0.00 | 0.00 | 10 | 1008.4 |
| 20260506013534 | 13 | 242 | 1.6 | 3.2 | 0.00 | 0.00 | 0.00 | 10 | 1008.2 |
| 20260506013057 | 13 | 328 | 4.8 | 9.7 | 0.00 | 0.00 | 0.00 | 10 | 1007.8 |
| 20260506012142 | 13 | 307 | 1.6 | 3.2 | 0.00 | 0.00 | 0.00 | 10 | 1008.2 |
| 20260506011709 | 13 | 255 | 1.6 | 3.2 | 0.00 | 0.00 | 0.00 | 10 | 1008.3 |
| 20260506011704 | 13 | 255 | 1.6 | 3.2 | 0.00 | 0.00 | 0.00 | 10 | 1008.3 |
| 20260506011227 | 13 | 223 | 0.0 | 0.0 | 0.00 | 0.00 | 0.00 | 10 | 1008.2 |
| 20260506010754 | 13 | 269 | 0.0 | 3.2 | 0.00 | 0.00 | 0.00 | 10 | 1007.9 |
| 20260506010749 | 13 | 269 | 0.0 | 3.2 | 0.00 | 0.00 | 0.00 | 10 | 1007.9 |
| 20260506010317 | 13 | 289 | 1.6 | 4.8 | 0.00 | 0.00 | 0.00 | 10 | 1007.8 |
| 20260506010312 | 13 | 289 | 1.6 | 4.8 | 0.00 | 0.00 | 0.00 | 10 | 1007.8 |
| 20260506005834 | 13 | 296 | 1.6 | 3.2 | 0.00 | 0.00 | 0.00 | 10 | 1007.9 |
| 20260506005357 | 13 | 285 | 0.0 | 1.6 | 0.00 | 0.00 | 0.00 | 10 | 1007.9 |
| 20260506004924 | 13 | 235 | 1.6 | 3.2 | 0.00 | 0.00 | 0.00 | 10 | 1007.9 |
| 20260506004919 | 13 | 235 | 1.6 | 3.2 | 0.00 | 0.00 | 0.00 | 10 | 1007.9 |
| 20260506004442 | 13 | 252 | 1.6 | 3.2 | 0.00 | 0.00 | 0.00 | 10 | 1007.9 |
| 20260506004009 | 13 | 279 | 1.6 | 3.2 | 0.00 | 0.00 | 0.00 | 10 | 1007.9 |
| 20260506004004 | 13 | 279 | 1.6 | 3.2 | 0.00 | 0.00 | 0.00 | 10 | 1007.9 |
| 20260506003527 | 13 | 306 | 1.6 | 3.2 | 0.00 | 0.00 | 0.00 | 10 | 1007.7 |
| 20260506003049 | 13 | 260 | 1.6 | 3.2 | 0.00 | 0.00 | 0.00 | 10 | 1007.7 |
| 20260506002612 | 13 | 229 | 1.6 | 4.8 | 0.00 | 0.00 | 0.00 | 10 | 1007.7 |
| 20260506001702 | 13 | 221 | 4.8 | 4.8 | 0.00 | 0.00 | 0.00 | 10 | 1007.8 |
| 20260506001657 | 13 | 221 | 4.8 | 4.8 | 0.00 | 0.00 | 0.00 | 10 | 1007.8 |
| 20260505235832 | 13 | 138 | 4.8 | 6.4 | 0.00 | 0.00 | 0.00 | 10 | 1007.8 |
| 20260505235827 | 13 | 138 | 4.8 | 6.4 | 0.00 | 0.00 | 0.00 | 10 | 1007.8 |
| 20260505235350 | 13 | 141 | 4.8 | 8.0 | 0.00 | 0.00 | 0.00 | 10 | 1007.7 |
| 20260505234917 | 12 | 138 | 3.2 | 4.8 | 0.00 | 0.00 | 0.00 | 10 | 1007.8 |
| 20260505234912 | 12 | 138 | 3.2 | 4.8 | 0.00 | 0.00 | 0.00 | 10 | 1007.8 |
| 20260505234435 | 12 | 141 | 3.2 | 4.8 | 0.00 | 0.00 | 0.00 | 10 | 1007.8 |
| 20260505234002 | 12 | 129 | 3.2 | 4.8 | 0.00 | 0.00 | 0.00 | 10 | 1007.8 |
| 20260505233957 | 12 | 129 | 3.2 | 4.8 | 0.00 | 0.00 | 0.00 | 10 | 1007.8 |
| 20260505232605 | 12 | 135 | 4.8 | 8.0 | 0.00 | 0.00 | 0.00 | 10 | 1007.7 |
| 20260505231650 | 12 | 135 | 4.8 | 8.0 | 0.00 | 0.00 | 0.00 | 10 | 1007.8 |
| 20260505230740 | 13 | 132 | 3.2 | 6.4 | 0.00 | 0.00 | 0.00 | 10 | 1007.8 |
| 20260505230735 | 13 | 132 | 3.2 | 6.4 | 0.00 | 0.00 | 0.00 | 10 | 1007.8 |
| 20260505225825 | 13 | 135 | 3.2 | 4.8 | 0.00 | 0.00 | 0.00 | 10 | 1007.8 |
| 20260505225820 | 13 | 135 | 3.2 | 4.8 | 0.00 | 0.00 | 0.00 | 10 | 1007.8 |
| 20260505225347 | 13 | 132 | 3.2 | 4.8 | 0.00 | 0.00 | 0.00 | 10 | 1007.7 |
| 20260505225344 | 13 | 132 | 3.2 | 4.8 | 0.00 | 0.00 | 0.00 | 10 | 1007.7 |
| 20260505224427 | 13 | 26 | 0.0 | 1.6 | 0.00 | 0.00 | 0.00 | 10 | 1007.8 |
| 20260505223955 | 13 | 233 | 1.6 | 4.8 | 0.00 | 0.00 | 0.00 | 88 | |
| 20260505223950 | 13 | 233 | 1.6 | 4.8 | 0.00 | 0.00 | 0.00 | 10 | 1007.9 |
| 20260505223512 | 13 | 170 | 3.2 | 4.8 | 0.00 | 0.00 | 0.00 | 10 | 1007.7 |
| 20260505223035 | 13 | 135 | 6.4 | 8.0 | 0.00 | 0.00 | 0.00 | 10 | 1006.8 |
| 20260505221642 | 13 | 135 | 8.0 | 11.3 | 0.00 | 0.00 | 0.00 | 10 | 1006.5 |
| 20260505221205 | 13 | 135 | 8.0 | 9.7 | 0.00 | 0.00 | 0.00 | 10 | 1006.5 |
| 20260505220727 | 13 | 132 | 8.0 | 11.3 | 0.00 | 0.00 | 0.00 | 10 | 1006.5 |
| 20260505220250 | 13 | 132 | 8.0 | 11.3 | 0.00 | 0.00 | 0.00 | 10 | 1006.5 |
| 20260505215812 | 13 | 125 | 6.4 | 8.0 | 0.00 | 0.00 | 0.00 | 10 | 1006.5 |
| 20260505215335 | 13 | 128 | 4.8 | 4.8 | 0.00 | 0.00 | 0.00 | 10 | 1006.5 |
| 20260505214857 | 13 | 129 | 3.2 | 4.8 | 0.00 | 0.00 | 0.00 | 10 | 1006.6 |
| 20260505213027 | 13 | 135 | 4.8 | 4.8 | 0.00 | 0.00 | 0.00 | 10 | 1006.8 |
| 20260505212550 | 13 | 135 | 4.8 | 4.8 | 0.00 | 0.00 | 0.00 | 10 | 1006.8 |
| 20260505211635 | 13 | 132 | 6.4 | 9.7 | 0.00 | 0.00 | 0.00 | 10 | 1006.7 |
| 20260505211157 | 13 | 132 | 6.4 | 8.0 | 0.00 | 0.00 | 0.00 | 10 | 1006.8 |
| 20260505210720 | 13 | 135 | 6.4 | 8.0 | 0.00 | 0.00 | 0.00 | 10 | 1006.8 |
| 20260505210243 | 13 | 135 | 6.4 | 8.0 | 0.00 | 0.00 | 0.00 | 10 | 1006.8 |
| 20260505205805 | 13 | 135 | 6.4 | 8.0 | 0.00 | 0.00 | 0.00 | 10 | 1006.8 |
| 20260505205327 | 13 | 135 | 4.8 | 6.4 | 0.00 | 0.00 | 0.00 | 10 | 1006.8 |
| 20260505204850 | 14 | 135 | 6.4 | 8.0 | 0.00 | 0.00 | 0.00 | 10 | 1006.9 |
| 20260505204412 | 14 | 132 | 6.4 | 8.0 | 0.00 | 0.00 | 0.00 | 10 | 1006.8 |
| 20260505203935 | 15 | 135 | 6.4 | 8.0 | 0.00 | 0.00 | 0.00 | 10 | 1006.9 |
| 20260505203502 | 15 | 135 | 8.0 | 8.0 | 0.00 | 0.00 | 0.00 | 10 | 1006.8 |
| 20260505203457 | 15 | 135 | 8.0 | 8.0 | 0.00 | 0.00 | 0.00 | 10 | 1006.8 |
| 20260505202547 | 14 | 135 | 6.4 | 8.0 | 0.00 | 0.00 | 0.00 | 10 | 1006.7 |
| 20260505202542 | 14 | 135 | 6.4 | 8.0 | 0.00 | 0.00 | 0.00 | 10 | 1006.7 |
| 20260505201627 | 14 | 135 | 4.8 | 8.0 | 0.00 | 0.00 | 0.00 | 10 | 1006.7 |
| 20260505201150 | 13 | 150 | 4.8 | 4.8 | 0.00 | 0.00 | 0.00 | 10 | 1006.7 |
| 20260505200717 | 13 | 173 | 4.8 | 4.8 | 0.00 | 0.00 | 0.00 | 10 | 1006.7 |
| 20260505200712 | 13 | 173 | 4.8 | 4.8 | 0.00 | 0.00 | 0.00 | 10 | 1006.7 |
| 20260505200235 | 13 | 139 | 3.2 | 4.8 | 0.00 | 0.00 | 0.00 | 10 | 1006.8 |
| 20260505195757 | 13 | 135 | 3.2 | 3.2 | 0.00 | 0.00 | 0.00 | 10 | 1006.8 |
| 20260505195325 | 13 | 139 | 1.6 | 3.2 | 0.00 | 0.00 | 0.00 | 10 | 1006.7 |
| 20260505195320 | 13 | 139 | 1.6 | 3.2 | 0.00 | 0.00 | 0.00 | 10 | 1006.7 |
| 20260505194843 | 13 | 131 | 4.8 | 8.0 | 0.00 | 0.00 | 0.00 | 10 | 1006.8 |
| 20260505193927 | 14 | 147 | 3.2 | 6.4 | 0.00 | 0.00 | 0.00 | 10 | 1006.8 |
| 20260505192057 | 15 | 164 | 1.6 | 3.2 | 0.00 | 0.00 | 0.00 | 10 | 1006.7 |
| 20260505190227 | 16 | 164 | 0.0 | 0.0 | 0.00 | 0.00 | 0.00 | 10 | 1006.7 |
| 20260505185749 | 16 | 150 | 0.0 | 3.2 | 0.00 | 0.00 | 0.00 | 10 | 1006.6 |
| 20260505185316 | 16 | 188 | 1.6 | 4.8 | 0.00 | 0.00 | 0.00 | 10 | 1006.7 |
| 20260505185312 | 16 | 188 | 1.6 | 4.8 | 0.00 | 0.00 | 0.00 | 10 | 1006.7 |
| 20260505184838 | 16 | 237 | 3.2 | 4.8 | 0.00 | 0.00 | 0.00 | 10 | 0.1 |
| 20260505184834 | 16 | 237 | 3.2 | 4.8 | 0.00 | 0.00 | 0.00 | 10 | 1006.6 |
| 20260505184435 | 16 | 198 | 1.6 | 3.2 | 0.00 | 0.00 | 0.00 | 10 | 1006.7 |
| 20260505184356 | 16 | 198 | 1.6 | 3.2 | 0.00 | 0.00 | 0.00 | 10 | 1006.7 |
| 20260505183008 | 16 | 144 | 1.6 | 3.2 | 0.00 | 0.00 | 0.00 | 10 | 1006.4 |
| 20260505182525 | 16 | 312 | 1.6 | 3.2 | 0.00 | 0.00 | 0.00 | 10 | 1006.4 |
| 20260505182048 | 16 | 247 | 3.2 | 4.8 | 0.00 | 0.00 | 0.00 | 10 | 1006.4 |
| 20260505181615 | 16 | 158 | 1.6 | 3.2 | 0.00 | 0.00 | 0.00 | 10 | 1006.4 |
| 20260505181610 | 16 | 158 | 1.6 | 3.2 | 0.00 | 0.00 | 0.00 | 10 | 1006.4 |
| 20260505181137 | 16 | 135 | 3.2 | 4.8 | 0.00 | 0.00 | 0.00 | 10 | 1006.2 |
| 20260505181132 | 16 | 135 | 3.2 | 4.8 | 0.00 | 0.00 | 0.00 | 10 | 1006.2 |
| 20260505180655 | 16 | 135 | 3.2 | 4.8 | 0.00 | 0.00 | 0.00 | 10 | 1006.1 |